Regional Weather Roundup
Issued by NWS State College, PA

Home | Current Version | Previous Version | Graphics & Text | Print | Product List | Glossary Off
Versions: 1 2 3 4 5 6 7 8 9 10 11 12 13 14 15 16 17 18 19 20 21 22 23 24 25 26 27 28 29 30 31 32 33 34 35 36 37 38 39 40 41 42 43 44 45 46 47 48 49 50

000
ASUS41 KCTP 280103
RWRCTP

REGIONAL WEATHER ROUNDUP
NATIONAL WEATHER SERVICE STATE COLLEGE PA
900 PM EDT MON JUL 27 2015

Note: "fair" indicates few or no clouds below 12,000 feet with no
significant weather and/or obstructions to visibility.

* = STATION THAT DOES NOT REPORT PRECIPITATION /E.G. RAIN...SNOW...ETC/
    THUNDER OR FOG.

PAZ002>004-007>009-013>016-020>023-029>032-280200-
WESTERN PENNSYLVANIA

CITY           SKY/WX    TMP DP  RH WIND       PRES   REMARKS
ERIE           CLEAR     78  65  63 CALM      30.01R
MEADVILLE      LGT RAIN  75  61  61 N6        30.04S
FRANKLIN*      CLEAR     72  59  64 CALM      30.04S
NEW CASTLE     FAIR      77  65  66 CALM      30.01R
BEAVER COUNTY  CLEAR     79  63  57 CALM      30.01R
BUTLER*        CLEAR     73  64  73 CALM      30.02S
PITTSBURGH INT PTCLDY    83  61  47 N7        30.00R
PITTSBURGH     CLEAR     81  61  50 NE3       29.99R
INDIANA*       PTCLDY    79  70  73 E6        30.05R
LATROBE        CLEAR     81  68  65 CALM      30.00R
WASHINGTON CO* NOT AVBL
$$

PAZ004>006-010>012-017>019-024>028-033>037-041-042-045-046-049>053-280200-
CENTRAL PENNSYLVANIA

CITY           SKY/WX    TMP DP  RH WIND       PRES   REMARKS
BRADFORD       CLEAR     69  58  67 CALM      30.07S
DUBOIS         CLEAR     75  62  64 SE3       30.04R
CLEARFIELD     CLEAR     76  66  71 CALM      30.04R
JOHNSTOWN      PTCLDY    72  67  84 E3        30.07R HAZE
ALTOONA        CLEAR     73  68  84 E5        30.04R
STATE COLLEGE  CLEAR     75  68  78 CALM      30.04R
WILLIAMSPORT   CLEAR     76  69  79 CALM      29.98R
SELINSGROVE    CLEAR     72  70  93 CALM      30.00R
FT INDIANTOWN  CLEAR     73  71  93 NE2       30.00R
CAPITAL CITY   CLEAR     78  70  76 CALM      29.99R
HARRISBURG     PTCLDY    77  72  84 SE3       29.98R
YORK           CLEAR     74  71  91 CALM      30.00R
$$

PAZ038>040-043-044-047-048-054-055-060>062-067>071-280200-
EASTERN PENNSYLVANIA

CITY           SKY/WX    TMP DP  RH WIND       PRES   REMARKS
SCRANTON       CLEAR     72  65  78 CALM      30.02R
MOUNT POCONO   CLEAR     69  68  96 CALM      30.07R FOG
ALLENTOWN      PTCLDY    80  69  69 S7        29.99R
QUAKERTOWN*    CLEAR     77  72  83 CALM      30.02R
READING        PTCLDY    79  69  71 CALM      29.99R
LANCASTER      CLEAR     76  70  82 S6        30.00R
COATESVILLE    LGT RAIN  73  72  94 CALM      30.03R
POTTSTOWN      PTCLDY    75  72  90 CALM      30.02R
BLUE BELL      MOCLDY    79  72  78 CALM      30.00R
DOYLESTOWN     MOCLDY    73  70  90 CALM      30.00R
WILLOW GROVE   NOT AVBL
NORTH PHILA    MOCLDY    80  67  64 S6        30.01R
PHILADELPHIA   CLOUDY    80  70  71 S7        30.01R
$$


USA.gov is the U.S. government's official web portal to all federal, state and local government web resources and services.